Starlink 6207

operational
NORAD ID: 56900 Int'l Des: 2023-083 Owner: SPXS Country: US Constellation: starlink
LEOCIRCULAR

Über Starlink 6207

Beschreibung wird geladen...

Live-Position

3D-Globus wird geladen...

Nächste Überflüge

Höhenverlauf

Altitude vs Time

uPlot chart will show altitude changes over time

Zweizeiliger Elementsatz

1 56900U 23083AA 26061.43829763 .00000203 00000-0 30093-4 0 9997
2 56900 43.0018 108.6924 0001140 266.9997 93.0715 15.02534702150697
Epoch: 2. März 2026 • Age: 29 hours

Aktueller Status

Höhe 568.3 km
Geschwindigkeit 7.58 km/s
Subsatellitenpunkt -34.79°S, 174.39°E
Startdatum 12. Juni 2023
Alter 2.7 years
Typ internet

Technische Details

Klassifizierung Payload
Masse 305.00 kg
Trockenmasse 290.00 kg
Gesamtmasse 305.00 kg
Länge 0.20 m
Durchmesser 2.80 m
Spannweite 9.00 m
Form Box + pan
Hersteller SPXS
Bus-Typ Starlink
Phasenstatus In Orbit
Besitzer/Staat SPXS/US

Große Konstellationen

Loading constellations...